Regional Weather Roundup
Issued by NWS

Home | Current Version | Previous Version | Graphics & Text | Print | Product List | Glossary On
Versions: 1 2 3 4 5 6 7 8 9 10 11 12 13 14 15 16 17 18 19 20 21 22 23 24 25 26 27 28 29 30 31 32 33 34 35 36 37 38 39 40 41 42 43 44 45 46 47 48 49 50
000
ASUS43 KLMK 231110
RWRKY
KENTUCKY REGIONAL WEATHER ROUNDUP
NATIONAL WEATHER SERVICE LOUISVILLE KY
600 AM EST THU FEB 23 2017

NOTE "FAIR" INDICATES FEW OR NO CLOUDS BELOW 12,000 FEET
WITH NO SIGNIFICANT WEATHER AND/OR OBSTRUCTIONS TO VISIBILITY.

KYZ001>023-026-027-061>063-070>075-231200-
WESTERN AND SOUTH CENTRAL KENTUCKY

CITY           SKY/WX    TMP DP  RH WIND       PRES   REMARKS
PADUCAH        CLEAR     57  53  86 S5        29.78S
HENDERSON      PTCLDY    55  50  82 S7        29.78S
OWENSBORO      PTCLDY    56  54  93 S7        29.81S
HOPKINSVILLE   MOCLDY    58  58 100 CALM      29.82S
BOWLING GREEN  FOG       52  51  97 CALM      29.85R VSB 1/4
GLASGOW        PTCLDY   N/A N/A N/A CALM      29.85R
$$

KYZ024-025-028>034-038-045-046-053-231200-
NORTH CENTRAL KENTUCKY

CITY           SKY/WX    TMP DP  RH WIND       PRES   REMARKS
LOUISVILLE/SDF MOCLDY    61  55  81 S6        29.82R
LOUISVILLE/LOU MOCLDY    57  53  86 CALM      29.82S
FORT KNOX      CLOUDY    57  57 100 S7        29.82R
$$

KYZ035>037-039>044-047>052-055>060-089>105-231200-
NORTHEAST KENTUCKY

CITY           SKY/WX    TMP DP  RH WIND       PRES   REMARKS
LEXINGTON      CLOUDY    55  52  89 S7        29.85R
COVINGTON      CLOUDY    59  56  89 SW9       29.81R
FRANKFORT      CLOUDY    57  53  86 S5        29.83R
$$

KYZ054-064>069-076>088-106>120-231200-
SOUTHEAST KENTUCKY

CITY           SKY/WX    TMP DP  RH WIND       PRES   REMARKS
JACKSON        MOCLDY    53  50  89 SW5       29.88R
LONDON         FOG       45  43  93 CALM      29.88R VSB 1/4
SOMERSET       PTCLDY    52  52 100 CALM      29.89R FOG
MIDDLESBORO    FOG       44  44 100 CALM      29.91R VSB 1/4
MONTICELLO     FOG       46  46 100 CALM      29.88S VSB 3/4
$$





USA.gov is the U.S. government's official web portal to all federal, state and local government web resources and services.